DECAYED
Showing default

ORBASTRO-AF 1, 56179 (Decayed)

Orbit data source: Space-Track

ORBASTRO-AF 1, 56179 was a UK payload satellite in LEO that was launched on Sat, 15 Apr 2023 UTC via an FALCON 9 launch vehicle from the Air Force Western Test Range (AFWTR). Payload-class satellites include a variety of spacecraft equipped with specific instruments for various scientific and technological missions. These include communications satellites like Starlink; space stations such as the ISS; scientific satellites like the Hubble; Earth observation satellites from companies like Planet Labs, Umbra, and HawkEye 360; GPS; miniature CubeSats for education and research; and military/defense satellites.

Not visible in the next 10 days
Identifier
56179, 2023-054B
Orbit
Decayed
Country
Flag of UKUK
Related business
Manufacturer
OrbAstro
Mission
Decayed Commercial Technology
Bus & Motor
CUBESAT 6U, Unknown motor
Mass
~10 kg wet, ~10 kg dry
Launch date (UTC)
2023-04-15 (3 years ago)
Launch vehicle
FALCON 9
Launch site
Air Force Western Test Range (AFWTR)
Object type
Payload
Rocket body
Debris
Shape & HBR
Box + 2 Pan, 0.1 m
Radar Cross Section
0.080 m², Medium (>0.1 m² and < 1m²)

Expand to show TLE details & history
Last TLE update: 4 months ago

TLE from 4 months ago
0 ORBASTRO-AF 1
1 56179U 23054B   26013.50375067  .09431482  25483-5  28917-3 0  9995
2 56179  97.2821 292.7894 0003564 253.9623 106.1287 16.45031166155311
Epoch: 2026-01-13T12:05Z
TLE epoch observation values (Epoch: 2026-01-13T12:05:24.057Z)
Latitude
-0.00006°
Longitude
-1.54598°
Altitude
156.362 km
Speed
7.812 km/s
True Right ascension
19h 31m 09s
True Declination
0° 00' 00"
Sunlit
Object was in daylight at epoch
Visualization orbit readout
Latitude
Unknown
Longitude
Unknown
Altitude
Unknown
Speed
Unknown
Apparent Right ascension
Unknown
Apparent Declination
Unknown
Sunlit
N/A
Visualization observer readout
Local Sidereal Time
01:15:47
Azimuth
Unknown
Elevation
Unknown
Doppler factor
Unknown
Orbital elements
Apogee altitude
151.575 km
Perigee altitude
146.922 km
Semi-major axis
6,527.386 km
Eccentricity
0.00036
Inclination
97.2821°
RAAN
292.7894°
Arg. of periapsis
253.9623°
True anomaly
106.16793°
Mean anomaly
106.1287°
Eccentric anomaly
106.14831°
Mean motion
4.11561 °/min
Orbital period
87.47 mins
BSTAR
0.00028917
Loading maneuver chart data...
Computing Atmospheric mass density...

Documentation

Showing up to 5 results
|